Year,Month,Day,Hour,Minute,Value (Times are PST for temperature in C)
2012,08,06,00,00,21.80
2012,08,06,00,01,21.80
2012,08,06,00,02,21.80
2012,08,06,00,03,21.80
2012,08,06,00,04,21.70
2012,08,06,00,05,21.70
2012,08,06,00,06,21.70
2012,08,06,00,07,21.70
2012,08,06,00,08,21.70
2012,08,06,00,09,21.70
2012,08,06,00,10,21.70
2012,08,06,00,11,21.60
2012,08,06,00,12,21.60
2012,08,06,00,13,21.60
2012,08,06,00,14,21.60
2012,08,06,00,15,21.50
2012,08,06,00,16,21.50
2012,08,06,00,17,21.40
2012,08,06,00,18,21.40
2012,08,06,00,19,21.40
2012,08,06,00,20,21.30
2012,08,06,00,21,21.30
2012,08,06,00,22,21.30
2012,08,06,00,23,21.20
2012,08,06,00,24,21.20
2012,08,06,00,25,21.20
2012,08,06,00,26,21.20
2012,08,06,00,27,21.20
2012,08,06,00,28,21.20
2012,08,06,00,29,21.20
2012,08,06,00,30,21.20
2012,08,06,00,31,21.20
2012,08,06,00,32,21.20
2012,08,06,00,33,21.20
2012,08,06,00,34,21.20
2012,08,06,00,35,21.20
2012,08,06,00,36,21.20
2012,08,06,00,37,21.20
2012,08,06,00,38,21.20
2012,08,06,00,39,21.10
2012,08,06,00,40,21.10
2012,08,06,00,41,21.10
2012,08,06,00,42,21.10
2012,08,06,00,43,21.10
2012,08,06,00,44,21.00
2012,08,06,00,45,21.00
2012,08,06,00,46,20.90
2012,08,06,00,47,20.90
2012,08,06,00,48,20.90
2012,08,06,00,49,20.80
2012,08,06,00,50,20.80
2012,08,06,00,51,20.80
2012,08,06,00,52,20.80
2012,08,06,00,53,20.80
2012,08,06,00,54,20.80
2012,08,06,00,55,20.80
2012,08,06,00,56,20.80
2012,08,06,00,57,20.80
2012,08,06,00,58,20.80
2012,08,06,00,59,20.80
2012,08,06,01,00,20.80
2012,08,06,01,01,20.80
2012,08,06,01,02,20.80
2012,08,06,01,03,20.80
2012,08,06,01,04,20.80
2012,08,06,01,05,20.80
2012,08,06,01,06,20.80
2012,08,06,01,07,20.80
2012,08,06,01,08,20.80
2012,08,06,01,09,20.80
2012,08,06,01,10,20.80
2012,08,06,01,11,20.80
2012,08,06,01,12,20.70
2012,08,06,01,13,20.70
2012,08,06,01,14,20.70
2012,08,06,01,15,20.70
2012,08,06,01,16,20.70
2012,08,06,01,17,20.70
2012,08,06,01,18,20.60
2012,08,06,01,19,20.60
2012,08,06,01,20,20.60
2012,08,06,01,21,20.60
2012,08,06,01,22,20.60
2012,08,06,01,23,20.50
2012,08,06,01,24,20.50
2012,08,06,01,25,20.50
2012,08,06,01,26,20.40
2012,08,06,01,27,20.40
2012,08,06,01,28,20.40
2012,08,06,01,29,20.40
2012,08,06,01,30,20.30
2012,08,06,01,31,20.30
2012,08,06,01,32,20.30
2012,08,06,01,33,20.30
2012,08,06,01,34,20.20
2012,08,06,01,35,20.20
2012,08,06,01,36,20.20
2012,08,06,01,37,20.20
2012,08,06,01,38,20.20
2012,08,06,01,39,20.20
2012,08,06,01,40,20.20
2012,08,06,01,41,20.10
2012,08,06,01,42,20.10
2012,08,06,01,43,20.10
2012,08,06,01,44,20.10
2012,08,06,01,45,20.10
2012,08,06,01,46,20.10
2012,08,06,01,47,20.00
2012,08,06,01,48,20.00
2012,08,06,01,49,20.00
2012,08,06,01,50,20.00
2012,08,06,01,51,20.00
2012,08,06,01,52,20.00
2012,08,06,01,53,19.90
2012,08,06,01,54,19.90
2012,08,06,01,55,19.90
2012,08,06,01,56,19.90
2012,08,06,01,57,19.90
2012,08,06,01,58,19.90
2012,08,06,01,59,19.90
2012,08,06,02,00,19.90
2012,08,06,02,01,19.80
2012,08,06,02,02,19.80
2012,08,06,02,03,19.80
2012,08,06,02,04,19.80
2012,08,06,02,05,19.80
2012,08,06,02,06,19.80
2012,08,06,02,07,19.80
2012,08,06,02,08,19.80
2012,08,06,02,09,19.80
2012,08,06,02,10,19.70
2012,08,06,02,11,19.70
2012,08,06,02,12,19.70
2012,08,06,02,13,19.70
2012,08,06,02,14,19.70
2012,08,06,02,15,19.70
2012,08,06,02,16,19.70
2012,08,06,02,17,19.70
2012,08,06,02,18,19.70
2012,08,06,02,19,19.70
2012,08,06,02,20,19.70
2012,08,06,02,21,19.60
2012,08,06,02,22,19.60
2012,08,06,02,23,19.60
2012,08,06,02,24,19.60
2012,08,06,02,25,19.60
2012,08,06,02,26,19.60
2012,08,06,02,27,19.60
2012,08,06,02,28,19.60
2012,08,06,02,29,19.60
2012,08,06,02,30,19.60
2012,08,06,02,31,19.60
2012,08,06,02,32,19.60
2012,08,06,02,33,19.60
2012,08,06,02,34,19.60
2012,08,06,02,35,19.60
2012,08,06,02,36,19.60
2012,08,06,02,37,19.60
2012,08,06,02,38,19.50
2012,08,06,02,39,19.50
2012,08,06,02,40,19.50
2012,08,06,02,41,19.50
2012,08,06,02,42,19.40
2012,08,06,02,43,19.40
2012,08,06,02,44,19.40
2012,08,06,02,45,19.40
2012,08,06,02,46,19.40
2012,08,06,02,47,19.40
2012,08,06,02,48,19.40
2012,08,06,02,49,19.40
2012,08,06,02,50,19.40
2012,08,06,02,51,19.40
2012,08,06,02,52,19.50
2012,08,06,02,53,19.50
2012,08,06,02,54,19.50
2012,08,06,02,55,19.50
2012,08,06,02,56,19.40
2012,08,06,02,57,19.40
2012,08,06,02,58,19.40
2012,08,06,02,59,19.40
2012,08,06,03,00,19.30
2012,08,06,03,01,19.30
2012,08,06,03,02,19.30
2012,08,06,03,03,19.30
2012,08,06,03,04,19.30
2012,08,06,03,05,19.30
2012,08,06,03,06,19.30
2012,08,06,03,07,19.30
2012,08,06,03,08,19.30
2012,08,06,03,09,19.30
2012,08,06,03,10,19.30
2012,08,06,03,11,19.30
2012,08,06,03,12,19.20
2012,08,06,03,13,19.20
2012,08,06,03,14,19.20
2012,08,06,03,15,19.20
2012,08,06,03,16,19.20
2012,08,06,03,17,19.20
2012,08,06,03,18,19.20
2012,08,06,03,19,19.20
2012,08,06,03,20,19.20
2012,08,06,03,21,19.20
2012,08,06,03,22,19.20
2012,08,06,03,23,19.20
2012,08,06,03,24,19.20
2012,08,06,03,25,19.20
2012,08,06,03,26,19.20
2012,08,06,03,27,19.20
2012,08,06,03,28,19.20
2012,08,06,03,29,19.20
2012,08,06,03,30,19.20
2012,08,06,03,31,19.20
2012,08,06,03,32,19.10
2012,08,06,03,33,19.20
2012,08,06,03,34,19.10
2012,08,06,03,35,19.10
2012,08,06,03,36,19.10
2012,08,06,03,37,19.10
2012,08,06,03,38,19.10
2012,08,06,03,39,19.10
2012,08,06,03,40,19.10
2012,08,06,03,41,19.10
2012,08,06,03,42,19.10
2012,08,06,03,43,19.10
2012,08,06,03,44,19.10
2012,08,06,03,45,19.00
2012,08,06,03,46,19.00
2012,08,06,03,47,19.00
2012,08,06,03,48,19.00
2012,08,06,03,49,19.10
2012,08,06,03,50,19.10
2012,08,06,03,51,19.10
2012,08,06,03,52,19.10
2012,08,06,03,53,19.10
2012,08,06,03,54,19.10
2012,08,06,03,55,19.10
2012,08,06,03,56,19.10
2012,08,06,03,57,19.10
2012,08,06,03,58,19.10
2012,08,06,03,59,19.10
2012,08,06,04,00,19.10
2012,08,06,04,01,19.10
2012,08,06,04,02,19.10
2012,08,06,04,03,19.10
2012,08,06,04,04,19.10
2012,08,06,04,05,19.10
2012,08,06,04,06,19.00
2012,08,06,04,07,19.00
2012,08,06,04,08,19.00
2012,08,06,04,09,19.00
2012,08,06,04,10,19.00
2012,08,06,04,11,19.00
2012,08,06,04,12,19.00
2012,08,06,04,13,19.00
2012,08,06,04,14,19.00
2012,08,06,04,15,18.90
2012,08,06,04,16,18.90
2012,08,06,04,17,18.90
2012,08,06,04,18,18.90
2012,08,06,04,19,18.90
2012,08,06,04,20,18.90
2012,08,06,04,21,18.90
2012,08,06,04,22,18.90
2012,08,06,04,23,18.90
2012,08,06,04,24,18.90
2012,08,06,04,25,18.90
2012,08,06,04,26,18.90
2012,08,06,04,27,18.90
2012,08,06,04,28,18.90
2012,08,06,04,29,18.80
2012,08,06,04,30,18.80
2012,08,06,04,31,18.80
2012,08,06,04,32,18.80
2012,08,06,04,33,18.80
2012,08,06,04,34,18.80
2012,08,06,04,35,18.80
2012,08,06,04,36,18.80
2012,08,06,04,37,18.80
2012,08,06,04,38,18.80
2012,08,06,04,39,18.70
2012,08,06,04,40,18.70
2012,08,06,04,41,18.70
2012,08,06,04,42,18.70
2012,08,06,04,43,18.70
2012,08,06,04,44,18.60
2012,08,06,04,45,18.60
2012,08,06,04,46,18.60
2012,08,06,04,47,18.60
2012,08,06,04,48,18.50
2012,08,06,04,49,18.50
2012,08,06,04,50,18.50
2012,08,06,04,51,18.40
2012,08,06,04,52,18.40
2012,08,06,04,53,18.40
2012,08,06,04,54,18.40
2012,08,06,04,55,18.30
2012,08,06,04,56,18.30
2012,08,06,04,57,18.30
2012,08,06,04,58,18.30
2012,08,06,04,59,18.30
2012,08,06,05,00,18.30
2012,08,06,05,01,18.30
2012,08,06,05,02,18.30
2012,08,06,05,03,18.30
2012,08,06,05,04,18.30
2012,08,06,05,05,18.30
2012,08,06,05,06,18.30
2012,08,06,05,07,18.30
2012,08,06,05,08,18.30
2012,08,06,05,09,18.30
2012,08,06,05,10,18.30
2012,08,06,05,11,18.30
2012,08,06,05,12,18.30
2012,08,06,05,13,18.30
2012,08,06,05,14,18.30
2012,08,06,05,15,18.30
2012,08,06,05,16,18.30
2012,08,06,05,17,18.30
2012,08,06,05,18,18.30
2012,08,06,05,19,18.30
2012,08,06,05,20,18.30
2012,08,06,05,21,18.30
2012,08,06,05,22,18.30
2012,08,06,05,23,18.30
2012,08,06,05,24,18.30
2012,08,06,05,25,18.30
2012,08,06,05,26,18.20
2012,08,06,05,27,18.20
2012,08,06,05,28,18.20
2012,08,06,05,29,18.20
2012,08,06,05,30,18.20
2012,08,06,05,31,18.20
2012,08,06,05,32,18.10
2012,08,06,05,33,18.10
2012,08,06,05,34,18.10
2012,08,06,05,35,18.10
2012,08,06,05,36,18.10
2012,08,06,05,37,18.00
2012,08,06,05,38,18.00
2012,08,06,05,39,18.00
2012,08,06,05,40,18.00
2012,08,06,05,41,18.00
2012,08,06,05,42,18.00
2012,08,06,05,43,18.00
2012,08,06,05,44,18.00
2012,08,06,05,45,18.00
2012,08,06,05,46,18.00
2012,08,06,05,47,18.00
2012,08,06,05,48,18.00
2012,08,06,05,49,18.00
2012,08,06,05,50,18.00
2012,08,06,05,51,18.00
2012,08,06,05,52,18.00
2012,08,06,05,53,17.90
2012,08,06,05,54,17.90
2012,08,06,05,55,17.90
2012,08,06,05,56,17.90
2012,08,06,05,57,17.90
2012,08,06,05,58,17.90
2012,08,06,05,59,17.90
2012,08,06,06,00,17.90
2012,08,06,06,01,17.90
2012,08,06,06,02,17.80
2012,08,06,06,03,17.80
2012,08,06,06,04,17.80
2012,08,06,06,05,17.90
2012,08,06,06,06,17.80
2012,08,06,06,07,17.90
2012,08,06,06,08,17.90
2012,08,06,06,09,17.80
2012,08,06,06,10,17.90
2012,08,06,06,11,17.90
2012,08,06,06,12,17.90
2012,08,06,06,13,17.90
2012,08,06,06,14,17.90
2012,08,06,06,15,17.90
2012,08,06,06,16,17.90
2012,08,06,06,17,17.90
2012,08,06,06,18,18.00
2012,08,06,06,19,18.00
2012,08,06,06,20,18.10
2012,08,06,06,21,18.10
2012,08,06,06,22,18.10
2012,08,06,06,23,18.20
2012,08,06,06,24,18.20
2012,08,06,06,25,18.30
2012,08,06,06,26,18.30
2012,08,06,06,27,18.40
2012,08,06,06,28,18.50
2012,08,06,06,29,18.60
2012,08,06,06,30,18.70
2012,08,06,06,31,18.80
2012,08,06,06,32,18.80
2012,08,06,06,33,18.90
2012,08,06,06,34,19.00
2012,08,06,06,35,19.10
2012,08,06,06,36,19.10
2012,08,06,06,37,19.20
2012,08,06,06,38,19.30
2012,08,06,06,39,19.30
2012,08,06,06,40,19.30
2012,08,06,06,41,19.40
2012,08,06,06,42,19.40
2012,08,06,06,43,19.40
2012,08,06,06,44,19.50
2012,08,06,06,45,19.50
2012,08,06,06,46,19.50
2012,08,06,06,47,19.60
2012,08,06,06,48,19.60
2012,08,06,06,49,19.70
2012,08,06,06,50,19.70
2012,08,06,06,51,19.70
2012,08,06,06,52,19.80
2012,08,06,06,53,19.80
2012,08,06,06,54,19.90
2012,08,06,06,55,19.90
2012,08,06,06,56,20.00
2012,08,06,06,57,20.00
2012,08,06,06,58,20.00
2012,08,06,06,59,20.10
2012,08,06,07,00,20.10
2012,08,06,07,01,20.10
2012,08,06,07,02,20.10
2012,08,06,07,03,20.10
2012,08,06,07,04,20.10
2012,08,06,07,05,20.10
2012,08,06,07,06,20.10
2012,08,06,07,07,20.10
2012,08,06,07,08,20.10
2012,08,06,07,09,20.10
2012,08,06,07,10,20.10
2012,08,06,07,11,20.10
2012,08,06,07,12,20.10
2012,08,06,07,13,20.10
2012,08,06,07,14,20.10
2012,08,06,07,15,20.10
2012,08,06,07,16,20.10
2012,08,06,07,17,20.10
2012,08,06,07,18,20.10
2012,08,06,07,19,20.10
2012,08,06,07,20,20.10
2012,08,06,07,21,20.10
2012,08,06,07,22,20.10
2012,08,06,07,23,20.10
2012,08,06,07,24,20.10
2012,08,06,07,25,20.10
2012,08,06,07,26,20.10
2012,08,06,07,27,20.10
2012,08,06,07,28,20.10
2012,08,06,07,29,20.10
2012,08,06,07,30,20.10
2012,08,06,07,31,20.00
2012,08,06,07,32,20.00
2012,08,06,07,33,20.00
2012,08,06,07,34,20.00
2012,08,06,07,35,19.90
2012,08,06,07,36,20.00
2012,08,06,07,37,20.00
2012,08,06,07,38,19.90
2012,08,06,07,39,20.00
2012,08,06,07,40,19.90
2012,08,06,07,41,19.90
2012,08,06,07,42,19.90
2012,08,06,07,43,19.90
2012,08,06,07,44,19.80
2012,08,06,07,45,19.80
2012,08,06,07,46,19.80
2012,08,06,07,47,19.70
2012,08,06,07,48,19.70
2012,08,06,07,49,19.70
2012,08,06,07,50,19.70
2012,08,06,07,51,19.70
2012,08,06,07,52,19.80
2012,08,06,07,53,19.90
2012,08,06,07,54,19.90
2012,08,06,07,55,20.00
2012,08,06,07,56,20.10
2012,08,06,07,57,20.10
2012,08,06,07,58,20.20
2012,08,06,07,59,20.20
2012,08,06,08,00,20.20
2012,08,06,08,01,20.30
2012,08,06,08,02,20.30
2012,08,06,08,03,20.40
2012,08,06,08,04,20.40
2012,08,06,08,05,20.50
2012,08,06,08,06,20.60
2012,08,06,08,07,20.70
2012,08,06,08,08,20.80
2012,08,06,08,09,20.90
2012,08,06,08,10,20.90
2012,08,06,08,11,21.00
2012,08,06,08,12,21.00
2012,08,06,08,13,21.10
2012,08,06,08,14,21.10
2012,08,06,08,15,21.20
2012,08,06,08,16,21.20
2012,08,06,08,17,21.20
2012,08,06,08,18,21.30
2012,08,06,08,19,21.30
2012,08,06,08,20,21.30
2012,08,06,08,21,21.40
2012,08,06,08,22,21.50
2012,08,06,08,23,21.60
2012,08,06,08,24,21.70
2012,08,06,08,25,21.80
2012,08,06,08,26,21.80
2012,08,06,08,27,21.80
2012,08,06,08,28,21.90
2012,08,06,08,29,21.90
2012,08,06,08,30,21.90
2012,08,06,08,31,21.90
2012,08,06,08,32,21.90
2012,08,06,08,33,21.90
2012,08,06,08,34,21.90
2012,08,06,08,35,21.80
2012,08,06,08,36,21.80
2012,08,06,08,37,21.70
2012,08,06,08,38,21.70
2012,08,06,08,39,21.70
2012,08,06,08,40,21.70
2012,08,06,08,41,21.70
2012,08,06,08,42,21.80
2012,08,06,08,43,21.80
2012,08,06,08,44,21.80
2012,08,06,08,45,21.80
2012,08,06,08,46,21.90
2012,08,06,08,47,21.90
2012,08,06,08,48,21.90
2012,08,06,08,49,22.00
2012,08,06,08,50,22.10
2012,08,06,08,51,22.10
2012,08,06,08,52,22.10
2012,08,06,08,53,22.20
2012,08,06,08,54,22.20
2012,08,06,08,55,22.30
2012,08,06,08,56,22.30
2012,08,06,08,57,22.30
2012,08,06,08,58,22.30
2012,08,06,08,59,22.30
2012,08,06,09,00,22.30
2012,08,06,09,01,22.40
2012,08,06,09,02,22.40
2012,08,06,09,03,22.40
2012,08,06,09,04,22.40
2012,08,06,09,05,22.30
2012,08,06,09,06,22.30
2012,08,06,09,07,22.30
2012,08,06,09,08,22.30
2012,08,06,09,09,22.30
2012,08,06,09,10,22.30
2012,08,06,09,11,22.30
2012,08,06,09,12,22.30
2012,08,06,09,13,22.30
2012,08,06,09,14,22.30
2012,08,06,09,15,22.40
2012,08,06,09,16,22.40
2012,08,06,09,17,22.40
2012,08,06,09,18,22.40
2012,08,06,09,19,22.40
2012,08,06,09,20,22.40
2012,08,06,09,21,22.40
2012,08,06,09,22,22.40
2012,08,06,09,23,22.40
2012,08,06,09,24,22.40
2012,08,06,09,25,22.40
2012,08,06,09,26,22.40
2012,08,06,09,27,22.40
2012,08,06,09,28,22.40
2012,08,06,09,29,22.50
2012,08,06,09,30,22.60
2012,08,06,09,31,22.60
2012,08,06,09,32,22.70
2012,08,06,09,33,22.70
2012,08,06,09,34,22.70
2012,08,06,09,35,22.70
2012,08,06,09,36,22.60
2012,08,06,09,37,22.60
2012,08,06,09,38,22.60
2012,08,06,09,39,22.60
2012,08,06,09,40,22.60
2012,08,06,09,41,22.60
2012,08,06,09,42,22.60
2012,08,06,09,43,22.60
2012,08,06,09,44,22.60
2012,08,06,09,45,22.60
2012,08,06,09,46,22.50
2012,08,06,09,47,22.50
2012,08,06,09,48,22.40
2012,08,06,09,49,22.40
2012,08,06,09,50,22.30
2012,08,06,09,51,22.20
2012,08,06,09,52,22.20
2012,08,06,09,53,22.20
2012,08,06,09,54,22.20
2012,08,06,09,55,22.30
2012,08,06,09,56,22.30
2012,08,06,09,57,22.40
2012,08,06,09,58,22.40
2012,08,06,09,59,22.40
2012,08,06,10,00,22.50
2012,08,06,10,01,22.50
2012,08,06,10,02,22.50
2012,08,06,10,03,22.50
2012,08,06,10,04,22.50
2012,08,06,10,05,22.60
2012,08,06,10,06,22.60
2012,08,06,10,07,22.70
2012,08,06,10,08,22.80
2012,08,06,10,09,22.80
2012,08,06,10,10,22.80
2012,08,06,10,11,22.80
2012,08,06,10,12,22.80
2012,08,06,10,13,22.80
2012,08,06,10,14,22.70
2012,08,06,10,15,22.70
2012,08,06,10,16,22.70
2012,08,06,10,17,22.70
2012,08,06,10,18,22.70
2012,08,06,10,19,22.70
2012,08,06,10,20,22.70
2012,08,06,10,21,22.80
2012,08,06,10,22,22.80
2012,08,06,10,23,22.80
2012,08,06,10,24,22.80
2012,08,06,10,25,22.80
2012,08,06,10,26,22.80
2012,08,06,10,27,22.90
2012,08,06,10,28,22.90
2012,08,06,10,29,23.00
2012,08,06,10,30,23.00
2012,08,06,10,31,22.90
2012,08,06,10,32,22.90
2012,08,06,10,33,23.00
2012,08,06,10,34,23.10
2012,08,06,10,35,23.20
2012,08,06,10,36,23.40
2012,08,06,10,37,23.40
2012,08,06,10,38,23.40
2012,08,06,10,39,23.40
2012,08,06,10,40,23.30
2012,08,06,10,41,23.20
2012,08,06,10,42,23.10
2012,08,06,10,43,23.00
2012,08,06,10,44,23.00
2012,08,06,10,45,23.00
2012,08,06,10,46,23.00
2012,08,06,10,47,23.00
2012,08,06,10,48,23.00
2012,08,06,10,49,22.90
2012,08,06,10,50,22.90
2012,08,06,10,51,22.80
2012,08,06,10,52,22.80
2012,08,06,10,53,22.70
2012,08,06,10,54,22.70
2012,08,06,10,55,22.70
2012,08,06,10,56,22.90
2012,08,06,10,57,23.00
2012,08,06,10,58,23.00
2012,08,06,10,59,23.00
2012,08,06,11,00,23.00
2012,08,06,11,01,23.00
2012,08,06,11,02,23.10
2012,08,06,11,03,23.10
2012,08,06,11,04,23.20
2012,08,06,11,05,23.20
2012,08,06,11,06,23.20
2012,08,06,11,07,23.30
2012,08,06,11,08,23.30
2012,08,06,11,09,23.30
2012,08,06,11,10,23.30
2012,08,06,11,11,23.30
2012,08,06,11,12,23.20
2012,08,06,11,13,23.10
2012,08,06,11,14,23.00
2012,08,06,11,15,23.00
2012,08,06,11,16,23.00
2012,08,06,11,17,22.90
2012,08,06,11,18,22.90
2012,08,06,11,19,22.90
2012,08,06,11,20,22.90
2012,08,06,11,21,23.00
2012,08,06,11,22,23.10
2012,08,06,11,23,23.10
2012,08,06,11,24,23.20
2012,08,06,11,25,23.40
2012,08,06,11,26,23.60
2012,08,06,11,27,23.70
2012,08,06,11,28,23.90
2012,08,06,11,29,24.00
2012,08,06,11,30,24.00
2012,08,06,11,31,23.90
2012,08,06,11,32,23.70
2012,08,06,11,33,23.50
2012,08,06,11,34,23.40
2012,08,06,11,35,23.20
2012,08,06,11,36,23.20
2012,08,06,11,37,23.20
2012,08,06,11,38,23.20
2012,08,06,11,39,23.20
2012,08,06,11,40,23.20
2012,08,06,11,41,23.20
2012,08,06,11,42,23.10
2012,08,06,11,43,23.20
2012,08,06,11,44,23.10
2012,08,06,11,45,23.10
2012,08,06,11,46,23.00
2012,08,06,11,47,22.90
2012,08,06,11,48,22.90
2012,08,06,11,49,22.90
2012,08,06,11,50,22.90
2012,08,06,11,51,22.80
2012,08,06,11,52,22.90
2012,08,06,11,53,22.90
2012,08,06,11,54,23.00
2012,08,06,11,55,23.00
2012,08,06,11,56,23.00
2012,08,06,11,57,23.10
2012,08,06,11,58,23.10
2012,08,06,11,59,23.20
2012,08,06,12,00,23.20
2012,08,06,12,01,23.30
2012,08,06,12,02,23.40
2012,08,06,12,03,23.30
2012,08,06,12,04,23.30
2012,08,06,12,05,23.20
2012,08,06,12,06,23.20
2012,08,06,12,07,23.20
2012,08,06,12,08,23.20
2012,08,06,12,09,23.20
2012,08,06,12,10,23.10
2012,08,06,12,11,23.10
2012,08,06,12,12,23.10
2012,08,06,12,13,23.10
2012,08,06,12,14,23.10
2012,08,06,12,15,23.10
2012,08,06,12,16,23.20
2012,08,06,12,17,23.20
2012,08,06,12,18,23.20
2012,08,06,12,19,23.30
2012,08,06,12,20,23.30
2012,08,06,12,21,23.30
2012,08,06,12,22,23.30
2012,08,06,12,23,23.20
2012,08,06,12,24,23.10
2012,08,06,12,25,23.10
2012,08,06,12,26,23.10
2012,08,06,12,27,23.10
2012,08,06,12,28,23.10
2012,08,06,12,29,23.10
2012,08,06,12,30,23.10
2012,08,06,12,31,23.00
2012,08,06,12,32,22.90
2012,08,06,12,33,22.90
2012,08,06,12,34,22.80
2012,08,06,12,35,22.70
2012,08,06,12,36,22.70
2012,08,06,12,37,22.70
2012,08,06,12,38,22.70
2012,08,06,12,39,22.70
2012,08,06,12,40,22.60
2012,08,06,12,41,22.60
2012,08,06,12,42,22.60
2012,08,06,12,43,22.70
2012,08,06,12,44,22.70
2012,08,06,12,45,22.70
2012,08,06,12,46,22.80
2012,08,06,12,47,22.80
2012,08,06,12,48,22.90
2012,08,06,12,49,22.90
2012,08,06,12,50,23.00
2012,08,06,12,51,23.00
2012,08,06,12,52,23.10
2012,08,06,12,53,23.10
2012,08,06,12,54,23.10
2012,08,06,12,55,23.00
2012,08,06,12,56,23.00
2012,08,06,12,57,23.00
2012,08,06,12,58,23.00
2012,08,06,12,59,23.00
2012,08,06,13,00,23.10
2012,08,06,13,01,23.10
2012,08,06,13,02,23.20
2012,08,06,13,03,23.20
2012,08,06,13,04,23.20
2012,08,06,13,05,23.20
2012,08,06,13,06,23.20
2012,08,06,13,07,23.20
2012,08,06,13,08,23.20
2012,08,06,13,09,23.10
2012,08,06,13,10,23.10
2012,08,06,13,11,23.10
2012,08,06,13,12,23.00
2012,08,06,13,13,22.90
2012,08,06,13,14,22.90
2012,08,06,13,15,22.90
2012,08,06,13,16,22.90
2012,08,06,13,17,22.90
2012,08,06,13,18,22.90
2012,08,06,13,19,22.80
2012,08,06,13,20,22.80
2012,08,06,13,21,22.80
2012,08,06,13,22,22.80
2012,08,06,13,23,22.80
2012,08,06,13,24,22.80
2012,08,06,13,25,22.80
2012,08,06,13,26,22.80
2012,08,06,13,27,22.80
2012,08,06,13,28,22.80
2012,08,06,13,29,22.80
2012,08,06,13,30,22.80
2012,08,06,13,31,22.80
2012,08,06,13,32,22.80
2012,08,06,13,33,22.80
2012,08,06,13,34,22.70
2012,08,06,13,35,22.70
2012,08,06,13,36,22.70
2012,08,06,13,37,22.70
2012,08,06,13,38,22.80
2012,08,06,13,39,22.80
2012,08,06,13,40,22.80
2012,08,06,13,41,22.80
2012,08,06,13,42,22.80
2012,08,06,13,43,22.80
2012,08,06,13,44,22.80
2012,08,06,13,45,22.80
2012,08,06,13,46,22.70
2012,08,06,13,47,22.70
2012,08,06,13,48,22.70
2012,08,06,13,49,22.60
2012,08,06,13,50,22.60
2012,08,06,13,51,22.60
2012,08,06,13,52,22.50
2012,08,06,13,53,22.50
2012,08,06,13,54,22.50
2012,08,06,13,55,22.40
2012,08,06,13,56,22.40
2012,08,06,13,57,22.40
2012,08,06,13,58,22.40
2012,08,06,13,59,22.40
2012,08,06,14,00,22.40
2012,08,06,14,01,22.40
2012,08,06,14,02,22.40
2012,08,06,14,03,22.40
2012,08,06,14,04,22.40
2012,08,06,14,05,22.40
2012,08,06,14,06,22.40
2012,08,06,14,07,22.40
2012,08,06,14,08,22.30
2012,08,06,14,09,22.30
2012,08,06,14,10,22.30
2012,08,06,14,11,22.30
2012,08,06,14,12,22.40
2012,08,06,14,13,22.40
2012,08,06,14,14,22.40
2012,08,06,14,15,22.40
2012,08,06,14,16,22.40
2012,08,06,14,17,22.40
2012,08,06,14,18,22.40
2012,08,06,14,19,22.40
2012,08,06,14,20,22.40
2012,08,06,14,21,22.50
2012,08,06,14,22,22.50
2012,08,06,14,23,22.40
2012,08,06,14,24,22.40
2012,08,06,14,25,22.40
2012,08,06,14,26,22.40
2012,08,06,14,27,22.40
2012,08,06,14,28,22.40
2012,08,06,14,29,22.40
2012,08,06,14,30,22.40
2012,08,06,14,31,22.40
2012,08,06,14,32,22.40
2012,08,06,14,33,22.40
2012,08,06,14,34,22.40
2012,08,06,14,35,22.50
2012,08,06,14,36,22.50
2012,08,06,14,37,22.60
2012,08,06,14,38,22.60
2012,08,06,14,39,22.60
2012,08,06,14,40,22.60
2012,08,06,14,41,22.60
2012,08,06,14,42,22.70
2012,08,06,14,43,22.70
2012,08,06,14,44,22.70
2012,08,06,14,45,22.70
2012,08,06,14,46,22.70
2012,08,06,14,47,22.70
2012,08,06,14,48,22.70
2012,08,06,14,49,22.70
2012,08,06,14,50,22.70
2012,08,06,14,51,22.70
2012,08,06,14,52,22.70
2012,08,06,14,53,22.70
2012,08,06,14,54,22.70
2012,08,06,14,55,22.70
2012,08,06,14,56,22.70
2012,08,06,14,57,22.70
2012,08,06,14,58,22.70
2012,08,06,14,59,22.70
2012,08,06,15,00,22.70
2012,08,06,15,01,22.70
2012,08,06,15,02,22.70
2012,08,06,15,03,22.70
2012,08,06,15,04,22.70
2012,08,06,15,05,22.70
2012,08,06,15,06,22.60
2012,08,06,15,07,22.60
2012,08,06,15,08,22.60
2012,08,06,15,09,22.60
2012,08,06,15,10,22.60
2012,08,06,15,11,22.60
2012,08,06,15,12,22.50
2012,08,06,15,13,22.50
2012,08,06,15,14,22.40
2012,08,06,15,15,22.40
2012,08,06,15,16,22.40
2012,08,06,15,17,22.40
2012,08,06,15,18,22.40
2012,08,06,15,19,22.40
2012,08,06,15,20,22.40
2012,08,06,15,21,22.30
2012,08,06,15,22,22.30
2012,08,06,15,23,22.20
2012,08,06,15,24,22.10
2012,08,06,15,25,22.10
2012,08,06,15,26,22.10
2012,08,06,15,27,22.10
2012,08,06,15,28,22.10
2012,08,06,15,29,22.20
2012,08,06,15,30,22.20
2012,08,06,15,31,22.20
2012,08,06,15,32,22.20
2012,08,06,15,33,22.20
2012,08,06,15,34,22.20
2012,08,06,15,35,22.10
2012,08,06,15,36,22.00
2012,08,06,15,37,21.90
2012,08,06,15,38,21.70
2012,08,06,15,39,21.60
2012,08,06,15,40,21.60
2012,08,06,15,41,21.50
2012,08,06,15,42,21.40
2012,08,06,15,43,21.40
2012,08,06,15,44,21.40
2012,08,06,15,45,21.40
2012,08,06,15,46,21.40
2012,08,06,15,47,21.30
2012,08,06,15,48,21.30
2012,08,06,15,49,21.30
2012,08,06,15,50,21.20
2012,08,06,15,51,21.20
2012,08,06,15,52,21.20
2012,08,06,15,53,21.20
2012,08,06,15,54,21.20
2012,08,06,15,55,21.10
2012,08,06,15,56,21.10
2012,08,06,15,57,21.10
2012,08,06,15,58,21.10
2012,08,06,15,59,21.10
2012,08,06,16,00,21.10
2012,08,06,16,01,21.10
2012,08,06,16,02,21.00
2012,08,06,16,03,21.00
2012,08,06,16,04,21.00
2012,08,06,16,05,21.00
2012,08,06,16,06,21.00
2012,08,06,16,07,21.00
2012,08,06,16,08,21.00
2012,08,06,16,09,21.10
2012,08,06,16,10,21.10
2012,08,06,16,11,21.10
2012,08,06,16,12,21.10
2012,08,06,16,13,21.10
2012,08,06,16,14,21.20
2012,08,06,16,15,21.20
2012,08,06,16,16,21.10
2012,08,06,16,17,21.10
2012,08,06,16,18,21.10
2012,08,06,16,19,21.10
2012,08,06,16,20,21.10
2012,08,06,16,21,21.10
2012,08,06,16,22,21.20
2012,08,06,16,23,21.20
2012,08,06,16,24,21.20
2012,08,06,16,25,21.30
2012,08,06,16,26,21.40
2012,08,06,16,27,21.40
2012,08,06,16,28,21.40
2012,08,06,16,29,21.40
2012,08,06,16,30,21.40
2012,08,06,16,31,21.50
2012,08,06,16,32,21.50
2012,08,06,16,33,21.50
2012,08,06,16,34,21.50
2012,08,06,16,35,21.50
2012,08,06,16,36,21.40
2012,08,06,16,37,21.40
2012,08,06,16,38,21.40
2012,08,06,16,39,21.40
2012,08,06,16,40,21.40
2012,08,06,16,41,21.40
2012,08,06,16,42,21.40
2012,08,06,16,43,21.40
2012,08,06,16,44,21.40
2012,08,06,16,45,21.30
2012,08,06,16,46,21.30
2012,08,06,16,47,21.30
2012,08,06,16,48,21.30
2012,08,06,16,49,21.30
2012,08,06,16,50,21.40
2012,08,06,16,51,21.40
2012,08,06,16,52,21.40
2012,08,06,16,53,21.40
2012,08,06,16,54,21.40
2012,08,06,16,55,21.40
2012,08,06,16,56,21.40
2012,08,06,16,57,21.40
2012,08,06,16,58,21.40
2012,08,06,16,59,21.40
2012,08,06,17,00,21.40
2012,08,06,17,01,21.40
2012,08,06,17,02,21.50
2012,08,06,17,03,21.50
2012,08,06,17,04,21.60
2012,08,06,17,05,21.60
2012,08,06,17,06,21.60
2012,08,06,17,07,21.60
2012,08,06,17,08,21.60
2012,08,06,17,09,21.60
2012,08,06,17,10,21.60
2012,08,06,17,11,21.60
2012,08,06,17,12,21.60
2012,08,06,17,13,21.60
2012,08,06,17,14,21.60
2012,08,06,17,15,21.60
2012,08,06,17,16,21.60
2012,08,06,17,17,21.60
2012,08,06,17,18,21.60
2012,08,06,17,19,21.60